Regional Weather Roundup
Issued by NWS Wakefield, VA

Home | Current Version | Previous Version | Graphics & Text | Print | Product List | Glossary On
Versions: 1 2 3 4 5 6 7 8 9 10 11 12 13 14 15 16 17 18 19 20 21 22 23 24 25 26 27 28 29 30 31 32 33 34 35 36 37 38 39 40 41 42 43 44 45 46 47 48 49 50
000
ASUS41 KAKQ 241515
RWRAKQ

REGIONAL WEATHER ROUNDUP
NATIONAL WEATHER SERVICE WAKEFIELD VA
1100 AM EDT MON APR 24 2017

Note: "fair" indicates few or no clouds below 12,000 feet with no
significant weather and/or obstructions to visibility. * = Denotes
station may not report precipitation (e.g., rain,snow,etc.),
thunder or fog.

VAZ042-051-052>054-056-241600-
NORTHERN VIRGINIA

CITY           SKY/WX    TMP DP  RH WIND       PRES   REMARKS
WASH NATIONAL  CLOUDY    55  49  80 NE17      30.09S
DULLES         CLOUDY    53  44  71 NE9       30.07F
FORT BELVOIR   CLOUDY    55  48  78 N6        30.07S
QUANTICO       CLOUDY    56  49  77 NE15G23   30.06F
FREDERICKSBRG* LGT RAIN  53  47  78 N9        30.04S
STAFFORD*      CLOUDY    53  48  84 NE8       30.09S
WARRENTON      CLOUDY    54  48  81 NE7       30.06S
CULPEPER*      CLOUDY    53  51  92 NE7       30.07S
MANASSAS*        N/A     53  47  79 NE8       30.08S
LEESBURG*      CLOUDY    55  50  82 NE10G18   30.09F
WINCHESTER     CLOUDY    50  46  87 NE7       30.09S
FRONT ROYAL*   CLOUDY    52  50  93 N3        30.08S
LURAY*         CLOUDY    50  48  93 N7        30.07S
$$

VAZ048-049-060>072-079>083-241600-
CENTRAL AND SOUTH CENTRAL VIRGINIA

CITY           SKY/WX    TMP DP  RH WIND       PRES   REMARKS
RICHMOND       CLOUDY    53  52  96 NE13      29.99S FOG
CHESTERFIELD*  CLOUDY    52  36  54 NE7G16    30.01R
PETERSBURG*    LGT RAIN  52  51  95 N10G16    29.99R
HANOVER        LGT RAIN  51  49  92 VRB7      30.02S FOG
TAPPAHANNOCK*  HVY RAIN  53  53 100 NE9       30.03S
QUINTON*       CLOUDY    53  53 100 NE7       29.99R
CHARLOTTSVILLE LGT RAIN  51  49  92 N15       30.04S FOG
GORDONSVILLE*  CLOUDY    50  49  94 N8        30.04S
ORANGE*        RAIN      50  48  93 NE12      30.05S
LOUISA*        RAIN      54  52  94 NE7       30.02S
BUMPASS*       CLOUDY    49  49 100 CALM      30.02S
FARMVILLE*     RAIN      50  50 100 N16       29.99S
CREWE*         CLOUDY    50  50 100 N7        29.99S
FORT PICKETT*  CLOUDY   N/A N/A N/A NE9G17    29.98S
CHASE CITY*    CLOUDY    50  49  95 N5        29.96R
CLARKSVILLE*   CLOUDY    52  52 100 N8        29.94S
SOUTH HILL*    CLOUDY    52  52 100 N10       30.00S
LAWRENCEVILLE* CLOUDY    53  52  97 NE7       29.94F
EMPORIA*       LGT RAIN  54  54 100 N8        29.95F
$$

VAZ088>098-241600-
SOUTHEAST VIRGINIA

CITY           SKY/WX    TMP DP  RH WIND       PRES   REMARKS
NORFOLK        LGT RAIN  61  59  93 NE9       29.94S
VIRGINIA BEACH LGT RAIN  59  57  93 E9        29.94R
NORFOLK NAVAL  LGT RAIN  61  59  93 E14       29.96S FOG
WEST POINT*    CLOUDY    55  54  97 NE5       30.01S
SALUDA*        CLOUDY    55  55 100 NE8       30.00S
NEWPORT NEWS   LGT RAIN  59  58  96 NE10      29.96S
LANGLEY AFB    LGT RAIN  60  60 100 E15       29.95S
FORT EUSTIS    DRIZZLE   59  57  94 NE10      29.94S
WILLIAMSBURG*  CLOUDY    59  59 100 CALM      29.98R
HR EXEC AP*    CLOUDY    61  57  88 NE6       29.93S
FRANKLIN*      LGT RAIN  59  57  94 NE12      29.94F
US460-WAKEFLD  LGT RAIN  57  56  96 VRB5      29.96S FOG
$$

VAZ020-022-025-037-045-241600-
WEST CENTRAL AND SOUTHWEST VIRGINIA

CITY           SKY/WX    TMP DP  RH WIND       PRES   REMARKS
STAUNTON*      DRIZZLE   48  47  97 N9        30.07S
WAYNESBORO*    CLOUDY    47  47 100 N8        30.04S
HOT SPRINGS VA RAIN      41  39  93 E15G21    29.99S VSB<1/4
LYNCHBURG      LGT RAIN  49  47  93 NE15G21   29.99F
DANVILLE       LGT RAIN  50  50 100 NE13      29.95S
SOUTH BOSTON*  CLOUDY    50  49  95 NE8       29.95S
MARTINSVILLE   DRIZZLE   49  47  92 NE9       29.96F
ROANOKE        LGT RAIN  50  48  93 NE12      30.00S
BLACKSBURG     LGT RAIN  49  47  93 NE12G18   29.97F
DUBLIN*        CLOUDY    50  47  90 E10G17    29.95S
MARION*        CLOUDY    49  48  96 CALM      29.94S
HILLSVILLE*    CLOUDY    49  49  97 E9G17     29.91R
RICHLANDS*     CLOUDY    52  47  85 E10       29.89S
WISE*          CLOUDY    52  52 100 N6        29.88S
ABINGDON*      CLOUDY    57  51  79 E14       29.86S
$$

MDZ021>025-VAZ099-100-241600-
SOUTHERN MARYLAND AND THE DELMARVA PENINSULA

CITY           SKY/WX    TMP DP  RH WIND       PRES   REMARKS
PATUXENT RIVER LGT RAIN  54  51  90 NE14      30.05S
BAY BRIDGE APT CLOUDY    54  46  76 NE8G17    30.09F HAZE
LEONARDTOWN    CLOUDY    52  48  87 NE7       30.06S
DOVER          CLOUDY    55  55  99 NE14      30.10F
GEORGETOWN     CLOUDY    57  49  74 MISG      30.10R
EASTON         PTSUNNY   55  46  71 NE12      30.11F
CAMBRIDGE      CLOUDY    55  48  76 NE8G15    30.06S
SALISBURY      LGT RAIN  55  53  93 NE18G24   30.05F FOG
OCEAN CITY     LGT RAIN  53  50  89 NE14      30.06S FOG
WALLOPS ISLAND RAIN      53  53 100 NE24G37   30.02S
ACCOMACK*      LGT RAIN  58  56  96 NE17G24   29.98S
$$

NCZ012>017-030>032-241600-
NORTH CENTRAL AND EASTERN NORTH CAROLINA

CITY           SKY/WX    TMP DP  RH WIND       PRES   REMARKS
ROANOKE RAPIDS LGT RAIN  57  57 100 N8G18     29.90F
RALEIGH        HVY RAIN  54  53  97 NE10      29.90R FOG
ELIZABETH CITY CLOUDY    66  65  96 NE10      29.91S
AHOSKIE*       DRIZZLE   59  58  97 N8        29.91S
EDENTON*       CLOUDY    69  65  89 NE9       29.89S
CURRITUCK*     CLOUDY    64  64 100 NE6       29.93S
KILL DEVIL HLS CLOUDY    63  63 100 CALM      29.89F
MANTEO         CLOUDY    66  63  88 E9        29.90S
CAPE HATTERAS  CLOUDY    74  65  73 SE10G21   29.88R HAZE
TARBORO*       NOT AVBL
GOLDSBORO      LGT RAIN  62  62 100 NE5       29.83S
WASHINGTON     RAIN      66  65  97 E8        29.86S
GREENVILLE     CLOUDY    64  64 100 NE8       29.88S
NEW BERN       RAIN      67  67 100 SE7       29.85S
WILMINGTON     RAIN      66  65  96 SE10G17   29.80S FOG
$$

VAZ048-241600-
ELSEWHERE

CITY           SKY/WX    TMP DP  RH WIND       PRES   REMARKS
HARRISBURG PA  CLOUDY    54  50  86 VRB3      30.13S
BALTIMORE      CLOUDY    54  46  74 NE14      30.10F
ANNAPOLIS      CLOUDY    55  45  68 NE12      30.09F
ANDREWS AFB    CLOUDY    54  42  65 NE17      30.06F
PHILADELPHIA   LGT RAIN  53  42  66 NE8       30.15S
HENDERSON NC   RAIN      50  49  96 NE9       29.92S
GREENSBORO     CLOUDY    50  49  96 NE21G29   29.89S
ROCKY MOUNT    CLOUDY    59  59 100 NE10      29.88R
$$

VAZ100-241600-
MARINE

STATION/POSITION TIME  TEMP    WIND        PRES    WAVE   SWELL
                       AIR SEA DIR/SP/G            HT/PER HT/PER
                 (UTC) (F)     (DEG/KT/KT) (MB)    (FT/S) (FT/S)
CAPE MAY NJ      1448   53 55   60/ 15/ 25 1018.9F
LEWES DE         1448   53 55   80/ 12/ 19 1018.8S
15NM E FENWICK I 1450   53 52   40/ 17/ 21 1018.5R   5/ 6   3/12
OCEAN-CITY-INLET 1448   53 54   70/ 10/ 17 1018.5R
WACHAPREAGUE VA  1448   56 58   40/ 20/ 26 1014.5S
THOMAS POINT MD  1500   52 58   30/ 17/ 19   N/A
GOOSES REEF MD   1500   54 54   40/ 16/ 17 1018.5    2/ 3
COVE POINT MD    1448   54      40/ 18/ 20 1018.3F
SOLOMONS ISLAND  1448   54 61   30/  9/ 13   N/A
BISHOPS HEAD MD  1448   57 58   50/ 17/ 21 1017.2F
PINEY POINT MD   1448           70/ 12/ 21   N/A
POTOMAC MD       1500   55 59   50/ 19/ 23 1015.4    2/ 3
CAMBRIDGE MD     1448   56 63   40/ 17/ 21 1017.2F
LEWISETTA VA     1448   54 62   50/ 10/ 17 1016.5F
RAPPAHANNOCK LGT 1448           50/ 17/ 19 1015.6F
STINGRAY PT      1500   57 61   70/ 19/ 23 1015.6    3/ 3
YORK RVR RNG VA  1448   60      80/ 23/ 27 1014.0S
YORKTOWN VA      1448   59 63   50/ 13/ 18 1014.4F
JAMESTOWN VA     1500   56 67   60/  6/  8   N/A     0
DOMINION TERM VA 1448   60      60/ 13/ 19 1014.2R
KIPTOPEKE VA     1448      60   60/ 10/ 14   N/A
CHES BAY BRIDGE  1448   59 60   60/ 17/ 22 1013.6R
CAPE HENRY VA    1448   59      50/ 20/ 23   N/A
WILLOUBY STN VA  1448   60      60/ 16/ 19 1014.9S
S CRANEY ISL VA  1448   61      70/ 14/ 17 1013.6R
CAPE HENRY BUOY  1442      55                N/A     5/ 6   2/11
1ST LANDING BUOY 1500   60 60              1014.4    3/ 4
CAPE CHARLES BUO 1451      57                N/A     5/ 6   2/11
64NM E OF VA BCH 1450   59 53   90/ 10/ 12 1014.2S   5/ 8   5/ 8
DUCK PIER NC     1448   60 61   50/  9/ 11 1012.3R
44100 DUCK FRF   1435      54                N/A     5/13   3/13
44056 DUCK FRF   1430      62                N/A     4/ 8   2/13
OREGON INLET NC  1448           70/  6/ 11   N/A
HATTERAS NC      1448   72 67  140/ 11/ 15 1011.3R
DIAMOND SHLS NC  1450   76 79  130/ 23/ 27 1011.1S   7/11   5/11
CAPE LOOKOUT NC  1500   67     140/ 12/ 13 1010.6S
$$



USA.gov is the U.S. government's official web portal to all federal, state and local government web resources and services.